owner,sensor,date,latitude,longitude,vertical_datum,sea_water_temperature,qcFlag 
SCCF RECON,ioos:station:SCCF:13:1,2009-03-01T00:00:00Z,26.5255,-82.0032,2.33,20.65,2 
SCCF RECON,ioos:station:SCCF:13:1,2009-03-01T01:00:00Z,26.5255,-82.0032,2.33,20.73,2 
SCCF RECON,ioos:station:SCCF:13:1,2009-03-01T02:00:00Z,26.5255,-82.0032,2.33,20.96,2 
SCCF RECON,ioos:station:SCCF:13:1,2009-03-01T03:00:00Z,26.5255,-82.0032,2.33,20.84,2 
SCCF RECON,ioos:station:SCCF:13:1,2009-03-01T04:00:00Z,26.5255,-82.0032,2.33,20.88,2 
SCCF RECON,ioos:station:SCCF:13:1,2009-03-01T05:00:00Z,26.5255,-82.0032,2.33,20.87,2 
SCCF RECON,ioos:station:SCCF:13:1,2009-03-01T06:00:00Z,26.5255,-82.0032,2.33,20.89,2 
SCCF RECON,ioos:station:SCCF:13:1,2009-03-01T07:00:00Z,26.5255,-82.0032,2.33,20.73,2 
SCCF RECON,ioos:station:SCCF:13:1,2009-03-01T08:00:00Z,26.5255,-82.0032,2.33,20.64,2 
SCCF RECON,ioos:station:SCCF:13:1,2009-03-01T09:00:00Z,26.5255,-82.0032,2.33,20.65,2 
SCCF RECON,ioos:station:SCCF:13:1,2009-03-01T10:00:00Z,26.5255,-82.0032,2.33,20.38,2 
SCCF RECON,ioos:station:SCCF:13:1,2009-03-01T11:00:00Z,26.5255,-82.0032,2.33,20.25,2 
SCCF RECON,ioos:station:SCCF:13:1,2009-03-01T12:00:00Z,26.5255,-82.0032,2.33,20.21,2 
SCCF RECON,ioos:station:SCCF:13:1,2009-03-01T13:00:00Z,26.5255,-82.0032,2.33,20.21,2 
SCCF RECON,ioos:station:SCCF:13:1,2009-03-01T14:00:00Z,26.5255,-82.0032,2.33,20.34,2 
SCCF RECON,ioos:station:SCCF:13:1,2009-03-01T15:00:00Z,26.5255,-82.0032,2.33,20.5,2 
SCCF RECON,ioos:station:SCCF:13:1,2009-03-01T16:00:00Z,26.5255,-82.0032,2.33,20.54,2 
SCCF RECON,ioos:station:SCCF:13:1,2009-03-01T17:00:00Z,26.5255,-82.0032,2.33,20.49,2 
SCCF RECON,ioos:station:SCCF:13:1,2009-03-01T18:00:00Z,26.5255,-82.0032,2.33,20.32,2 
SCCF RECON,ioos:station:SCCF:13:1,2009-03-01T19:00:00Z,26.5255,-82.0032,2.33,20.25,2 
SCCF RECON,ioos:station:SCCF:13:1,2009-03-01T20:00:00Z,26.5255,-82.0032,2.33,20.18,2 
SCCF RECON,ioos:station:SCCF:13:1,2009-03-01T21:00:00Z,26.5255,-82.0032,2.33,20.15,2 
SCCF RECON,ioos:station:SCCF:13:1,2009-03-01T22:00:00Z,26.5255,-82.0032,2.33,20.01,2 
SCCF RECON,ioos:station:SCCF:13:1,2009-03-01T23:00:00Z,26.5255,-82.0032,2.33,20.03,2 
SCCF RECON,ioos:station:SCCF:13:1,2009-03-02T00:00:00Z,26.5255,-82.0032,2.33,19.9,2 
SCCF RECON,ioos:station:SCCF:13:1,2009-03-02T01:00:00Z,26.5255,-82.0032,2.33,19.76,2 
SCCF RECON,ioos:station:SCCF:13:1,2009-03-02T02:00:00Z,26.5255,-82.0032,2.33,19.55,2 
SCCF RECON,ioos:station:SCCF:13:1,2009-03-02T03:00:00Z,26.5255,-82.0032,2.33,19.48,2 
SCCF RECON,ioos:station:SCCF:13:1,2009-03-02T04:00:00Z,26.5255,-82.0032,2.33,19.37,2 
SCCF RECON,ioos:station:SCCF:13:1,2009-03-02T05:00:00Z,26.5255,-82.0032,2.33,19.25,2 
SCCF RECON,ioos:station:SCCF:13:1,2009-03-02T06:00:00Z,26.5255,-82.0032,2.33,19.15,2 
SCCF RECON,ioos:station:SCCF:13:1,2009-03-02T07:00:00Z,26.5255,-82.0032,2.33,19.03,2 
SCCF RECON,ioos:station:SCCF:13:1,2009-03-02T08:00:00Z,26.5255,-82.0032,2.33,18.9,2 
SCCF RECON,ioos:station:SCCF:13:1,2009-03-02T09:00:00Z,26.5255,-82.0032,2.33,18.71,2 
SCCF RECON,ioos:station:SCCF:13:1,2009-03-02T10:00:00Z,26.5255,-82.0032,2.33,18.57,2 
SCCF RECON,ioos:station:SCCF:13:1,2009-03-02T11:00:00Z,26.5255,-82.0032,2.33,18.43,2 
SCCF RECON,ioos:station:SCCF:13:1,2009-03-02T12:00:00Z,26.5255,-82.0032,2.33,18.34,2 
SCCF RECON,ioos:station:SCCF:13:1,2009-03-02T13:00:00Z,26.5255,-82.0032,2.33,18.29,2 
SCCF RECON,ioos:station:SCCF:13:1,2009-03-02T14:00:00Z,26.5255,-82.0032,2.33,18.15,2 
SCCF RECON,ioos:station:SCCF:13:1,2009-03-02T15:00:00Z,26.5255,-82.0032,2.33,18.2,2 
SCCF RECON,ioos:station:SCCF:13:1,2009-03-02T16:00:00Z,26.5255,-82.0032,2.33,18.38,2 
SCCF RECON,ioos:station:SCCF:13:1,2009-03-02T17:00:00Z,26.5255,-82.0032,2.33,18.42,2 
SCCF RECON,ioos:station:SCCF:13:1,2009-03-02T18:00:00Z,26.5255,-82.0032,2.33,18.53,2 
SCCF RECON,ioos:station:SCCF:13:1,2009-03-02T19:00:00Z,26.5255,-82.0032,2.33,18.14,2 
SCCF RECON,ioos:station:SCCF:13:1,2009-03-02T20:00:00Z,26.5255,-82.0032,2.33,18.12,2 
SCCF RECON,ioos:station:SCCF:13:1,2009-03-02T21:00:00Z,26.5255,-82.0032,2.33,18.25,2 
SCCF RECON,ioos:station:SCCF:13:1,2009-03-02T22:00:00Z,26.5255,-82.0032,2.33,18.33,2 
SCCF RECON,ioos:station:SCCF:13:1,2009-03-02T23:00:00Z,26.5255,-82.0032,2.33,18.19,2 
SCCF RECON,ioos:station:SCCF:13:1,2009-03-03T00:00:00Z,26.5255,-82.0032,2.33,18.19,2 
SCCF RECON,ioos:station:SCCF:13:1,2009-03-03T01:00:00Z,26.5255,-82.0032,2.33,18.09,2 
SCCF RECON,ioos:station:SCCF:13:1,2009-03-03T02:00:00Z,26.5255,-82.0032,2.33,17.92,2 
SCCF RECON,ioos:station:SCCF:13:1,2009-03-03T03:00:00Z,26.5255,-82.0032,2.33,17.79,2 
SCCF RECON,ioos:station:SCCF:13:1,2009-03-03T04:00:00Z,26.5255,-82.0032,2.33,17.64,2 
SCCF RECON,ioos:station:SCCF:13:1,2009-03-03T05:00:00Z,26.5255,-82.0032,2.33,17.74,2 
SCCF RECON,ioos:station:SCCF:13:1,2009-03-03T06:00:00Z,26.5255,-82.0032,2.33,17.63,2 
SCCF RECON,ioos:station:SCCF:13:1,2009-03-03T07:00:00Z,26.5255,-82.0032,2.33,17.67,2 
SCCF RECON,ioos:station:SCCF:13:1,2009-03-03T08:00:00Z,26.5255,-82.0032,2.33,17.65,2 
SCCF RECON,ioos:station:SCCF:13:1,2009-03-03T09:00:00Z,26.5255,-82.0032,2.33,17.49,2 
SCCF RECON,ioos:station:SCCF:13:1,2009-03-03T10:00:00Z,26.5255,-82.0032,2.33,17.4,2 
SCCF RECON,ioos:station:SCCF:13:1,2009-03-03T11:00:00Z,26.5255,-82.0032,2.33,17.23,2 
SCCF RECON,ioos:station:SCCF:13:1,2009-03-03T12:00:00Z,26.5255,-82.0032,2.33,17.13,2 
SCCF RECON,ioos:station:SCCF:13:1,2009-03-03T13:00:00Z,26.5255,-82.0032,2.33,17.08,2 
SCCF RECON,ioos:station:SCCF:13:1,2009-03-03T14:00:00Z,26.5255,-82.0032,2.33,16.89,2 
SCCF RECON,ioos:station:SCCF:13:1,2009-03-03T15:00:00Z,26.5255,-82.0032,2.33,16.89,2 
SCCF RECON,ioos:station:SCCF:13:1,2009-03-03T16:00:00Z,26.5255,-82.0032,2.33,16.89,2 
SCCF RECON,ioos:station:SCCF:13:1,2009-03-03T17:00:00Z,26.5255,-82.0032,2.33,16.89,2 
SCCF RECON,ioos:station:SCCF:13:1,2009-03-03T18:00:00Z,26.5255,-82.0032,2.33,17.33,2 
SCCF RECON,ioos:station:SCCF:13:1,2009-03-03T19:00:00Z,26.5255,-82.0032,2.33,17.33,2 
SCCF RECON,ioos:station:SCCF:13:1,2009-03-03T20:00:00Z,26.5255,-82.0032,2.33,17.39,2 
SCCF RECON,ioos:station:SCCF:13:1,2009-03-03T21:00:00Z,26.5255,-82.0032,2.33,17.28,2 
SCCF RECON,ioos:station:SCCF:13:1,2009-03-03T22:00:00Z,26.5255,-82.0032,2.33,17.22,2 
SCCF RECON,ioos:station:SCCF:13:1,2009-03-03T23:00:00Z,26.5255,-82.0032,2.33,17.27,2 
SCCF RECON,ioos:station:SCCF:13:1,2009-03-04T00:00:00Z,26.5255,-82.0032,2.33,17.28,2 
SCCF RECON,ioos:station:SCCF:13:1,2009-03-04T01:00:00Z,26.5255,-82.0032,2.33,17.05,2 
SCCF RECON,ioos:station:SCCF:13:1,2009-03-04T02:00:00Z,26.5255,-82.0032,2.33,17.11,2 
SCCF RECON,ioos:station:SCCF:13:1,2009-03-04T03:00:00Z,26.5255,-82.0032,2.33,17.0,2 
SCCF RECON,ioos:station:SCCF:13:1,2009-03-04T04:00:00Z,26.5255,-82.0032,2.33,16.87,2 
SCCF RECON,ioos:station:SCCF:13:1,2009-03-04T05:00:00Z,26.5255,-82.0032,2.33,17.01,2 
SCCF RECON,ioos:station:SCCF:13:1,2009-03-04T06:00:00Z,26.5255,-82.0032,2.33,16.88,2 
SCCF RECON,ioos:station:SCCF:13:1,2009-03-04T07:00:00Z,26.5255,-82.0032,2.33,16.92,2 
SCCF RECON,ioos:station:SCCF:13:1,2009-03-04T08:00:00Z,26.5255,-82.0032,2.33,16.98,2 
SCCF RECON,ioos:station:SCCF:13:1,2009-03-04T09:00:00Z,26.5255,-82.0032,2.33,16.87,2 
SCCF RECON,ioos:station:SCCF:13:1,2009-03-04T10:00:00Z,26.5255,-82.0032,2.33,16.74,2 
SCCF RECON,ioos:station:SCCF:13:1,2009-03-04T11:00:00Z,26.5255,-82.0032,2.33,16.6,2 
SCCF RECON,ioos:station:SCCF:13:1,2009-03-04T12:00:00Z,26.5255,-82.0032,2.33,16.39,2 
SCCF RECON,ioos:station:SCCF:13:1,2009-03-04T13:00:00Z,26.5255,-82.0032,2.33,16.23,2 
SCCF RECON,ioos:station:SCCF:13:1,2009-03-04T14:00:00Z,26.5255,-82.0032,2.33,15.67,2 
SCCF RECON,ioos:station:SCCF:13:1,2009-03-04T15:00:00Z,26.5255,-82.0032,2.33,16.16,2 
SCCF RECON,ioos:station:SCCF:13:1,2009-03-04T16:00:00Z,26.5255,-82.0032,2.33,16.3,2 
SCCF RECON,ioos:station:SCCF:13:1,2009-03-04T17:00:00Z,26.5255,-82.0032,2.33,16.27,2 
SCCF RECON,ioos:station:SCCF:13:1,2009-03-04T18:00:00Z,26.5255,-82.0032,2.33,16.37,2 
SCCF RECON,ioos:station:SCCF:13:1,2009-03-04T19:00:00Z,26.5255,-82.0032,2.33,16.8,2 
SCCF RECON,ioos:station:SCCF:13:1,2009-03-04T20:00:00Z,26.5255,-82.0032,2.33,16.84,2 
SCCF RECON,ioos:station:SCCF:13:1,2009-03-04T21:00:00Z,26.5255,-82.0032,2.33,17.03,2 
SCCF RECON,ioos:station:SCCF:13:1,2009-03-04T22:00:00Z,26.5255,-82.0032,2.33,17.01,2 
SCCF RECON,ioos:station:SCCF:13:1,2009-03-04T23:00:00Z,26.5255,-82.0032,2.33,17.08,2 
SCCF RECON,ioos:station:SCCF:13:1,2009-03-05T00:00:00Z,26.5255,-82.0032,2.33,17.16,2 
SCCF RECON,ioos:station:SCCF:13:1,2009-03-05T01:00:00Z,26.5255,-82.0032,2.33,17.24,2 
SCCF RECON,ioos:station:SCCF:13:1,2009-03-05T02:00:00Z,26.5255,-82.0032,2.33,17.17,2 
SCCF RECON,ioos:station:SCCF:13:1,2009-03-05T03:00:00Z,26.5255,-82.0032,2.33,17.18,2 
SCCF RECON,ioos:station:SCCF:13:1,2009-03-05T04:00:00Z,26.5255,-82.0032,2.33,16.97,2 
SCCF RECON,ioos:station:SCCF:13:1,2009-03-05T05:00:00Z,26.5255,-82.0032,2.33,16.96,2 
SCCF RECON,ioos:station:SCCF:13:1,2009-03-05T06:00:00Z,26.5255,-82.0032,2.33,16.98,2 
SCCF RECON,ioos:station:SCCF:13:1,2009-03-05T07:00:00Z,26.5255,-82.0032,2.33,17.02,2 
SCCF RECON,ioos:station:SCCF:13:1,2009-03-05T08:00:00Z,26.5255,-82.0032,2.33,17.08,2 
SCCF RECON,ioos:station:SCCF:13:1,2009-03-05T09:00:00Z,26.5255,-82.0032,2.33,17.08,2 
SCCF RECON,ioos:station:SCCF:13:1,2009-03-05T10:00:00Z,26.5255,-82.0032,2.33,17.07,2 
SCCF RECON,ioos:station:SCCF:13:1,2009-03-05T11:00:00Z,26.5255,-82.0032,2.33,17.03,2 
SCCF RECON,ioos:station:SCCF:13:1,2009-03-05T12:00:00Z,26.5255,-82.0032,2.33,17.0,2 
SCCF RECON,ioos:station:SCCF:13:1,2009-03-05T13:00:00Z,26.5255,-82.0032,2.33,16.62,2 
SCCF RECON,ioos:station:SCCF:13:1,2009-03-05T14:00:00Z,26.5255,-82.0032,2.33,16.72,2 
SCCF RECON,ioos:station:SCCF:13:1,2009-03-05T15:00:00Z,26.5255,-82.0032,2.33,16.93,2 
SCCF RECON,ioos:station:SCCF:13:1,2009-03-05T16:00:00Z,26.5255,-82.0032,2.33,17.09,2 
SCCF RECON,ioos:station:SCCF:13:1,2009-03-05T17:00:00Z,26.5255,-82.0032,2.33,17.19,2 
SCCF RECON,ioos:station:SCCF:13:1,2009-03-05T18:00:00Z,26.5255,-82.0032,2.33,17.45,2 
SCCF RECON,ioos:station:SCCF:13:1,2009-03-05T19:00:00Z,26.5255,-82.0032,2.33,17.93,2 
SCCF RECON,ioos:station:SCCF:13:1,2009-03-05T20:00:00Z,26.5255,-82.0032,2.33,18.02,2 
SCCF RECON,ioos:station:SCCF:13:1,2009-03-05T21:00:00Z,26.5255,-82.0032,2.33,17.99,2 
SCCF RECON,ioos:station:SCCF:13:1,2009-03-05T22:00:00Z,26.5255,-82.0032,2.33,17.7,2 
SCCF RECON,ioos:station:SCCF:13:1,2009-03-05T23:00:00Z,26.5255,-82.0032,2.33,17.6,2 
SCCF RECON,ioos:station:SCCF:13:1,2009-03-06T00:00:00Z,26.5255,-82.0032,2.33,17.77,2 
SCCF RECON,ioos:station:SCCF:13:1,2009-03-06T01:00:00Z,26.5255,-82.0032,2.33,17.84,2 
SCCF RECON,ioos:station:SCCF:13:1,2009-03-06T02:00:00Z,26.5255,-82.0032,2.33,17.78,2 
SCCF RECON,ioos:station:SCCF:13:1,2009-03-06T03:00:00Z,26.5255,-82.0032,2.33,17.76,2 
SCCF RECON,ioos:station:SCCF:13:1,2009-03-06T04:00:00Z,26.5255,-82.0032,2.33,17.68,2 
SCCF RECON,ioos:station:SCCF:13:1,2009-03-06T05:00:00Z,26.5255,-82.0032,2.33,17.49,2 
SCCF RECON,ioos:station:SCCF:13:1,2009-03-06T06:00:00Z,26.5255,-82.0032,2.33,17.48,2 
SCCF RECON,ioos:station:SCCF:13:1,2009-03-06T07:00:00Z,26.5255,-82.0032,2.33,17.38,2 
SCCF RECON,ioos:station:SCCF:13:1,2009-03-06T08:00:00Z,26.5255,-82.0032,2.33,17.45,2 
SCCF RECON,ioos:station:SCCF:13:1,2009-03-06T09:00:00Z,26.5255,-82.0032,2.33,17.56,2 
SCCF RECON,ioos:station:SCCF:13:1,2009-03-06T10:00:00Z,26.5255,-82.0032,2.33,17.52,2 
SCCF RECON,ioos:station:SCCF:13:1,2009-03-06T11:00:00Z,26.5255,-82.0032,2.33,17.47,2 
SCCF RECON,ioos:station:SCCF:13:1,2009-03-06T12:00:00Z,26.5255,-82.0032,2.33,17.42,2 
SCCF RECON,ioos:station:SCCF:13:1,2009-03-06T13:00:00Z,26.5255,-82.0032,2.33,17.37,2 
SCCF RECON,ioos:station:SCCF:13:1,2009-03-06T14:00:00Z,26.5255,-82.0032,2.33,17.05,2 
SCCF RECON,ioos:station:SCCF:13:1,2009-03-06T15:00:00Z,26.5255,-82.0032,2.33,17.38,2 
SCCF RECON,ioos:station:SCCF:13:1,2009-03-06T16:00:00Z,26.5255,-82.0032,2.33,17.63,2 
SCCF RECON,ioos:station:SCCF:13:1,2009-03-06T17:00:00Z,26.5255,-82.0032,2.33,17.83,2 
SCCF RECON,ioos:station:SCCF:13:1,2009-03-06T18:00:00Z,26.5255,-82.0032,2.33,17.97,2 
SCCF RECON,ioos:station:SCCF:13:1,2009-03-06T19:00:00Z,26.5255,-82.0032,2.33,18.16,2 
SCCF RECON,ioos:station:SCCF:13:1,2009-03-06T20:00:00Z,26.5255,-82.0032,2.33,18.35,2 
SCCF RECON,ioos:station:SCCF:13:1,2009-03-06T21:00:00Z,26.5255,-82.0032,2.33,18.49,2 
SCCF RECON,ioos:station:SCCF:13:1,2009-03-06T22:00:00Z,26.5255,-82.0032,2.33,18.51,2 
SCCF RECON,ioos:station:SCCF:13:1,2009-03-06T23:00:00Z,26.5255,-82.0032,2.33,18.46,2 
SCCF RECON,ioos:station:SCCF:13:1,2009-03-07T00:00:00Z,26.5255,-82.0032,2.33,18.16,2 
SCCF RECON,ioos:station:SCCF:13:1,2009-03-07T01:00:00Z,26.5255,-82.0032,2.33,17.98,2 
SCCF RECON,ioos:station:SCCF:13:1,2009-03-07T02:00:00Z,26.5255,-82.0032,2.33,18.03,2 
SCCF RECON,ioos:station:SCCF:13:1,2009-03-07T03:00:00Z,26.5255,-82.0032,2.33,18.11,2 
SCCF RECON,ioos:station:SCCF:13:1,2009-03-07T04:00:00Z,26.5255,-82.0032,2.33,18.07,2 
SCCF RECON,ioos:station:SCCF:13:1,2009-03-07T05:00:00Z,26.5255,-82.0032,2.33,18.02,2 
SCCF RECON,ioos:station:SCCF:13:1,2009-03-07T06:00:00Z,26.5255,-82.0032,2.33,17.98,2 
SCCF RECON,ioos:station:SCCF:13:1,2009-03-07T07:00:00Z,26.5255,-82.0032,2.33,18.04,2 
SCCF RECON,ioos:station:SCCF:13:1,2009-03-07T08:00:00Z,26.5255,-82.0032,2.33,18.0,2 
SCCF RECON,ioos:station:SCCF:13:1,2009-03-07T09:00:00Z,26.5255,-82.0032,2.33,18.01,2 
SCCF RECON,ioos:station:SCCF:13:1,2009-03-07T10:00:00Z,26.5255,-82.0032,2.33,18.15,2 
SCCF RECON,ioos:station:SCCF:13:1,2009-03-07T11:00:00Z,26.5255,-82.0032,2.33,18.12,2 
SCCF RECON,ioos:station:SCCF:13:1,2009-03-07T12:00:00Z,26.5255,-82.0032,2.33,18.07,2 
SCCF RECON,ioos:station:SCCF:13:1,2009-03-07T13:00:00Z,26.5255,-82.0032,2.33,18.06,2 
SCCF RECON,ioos:station:SCCF:13:1,2009-03-07T14:00:00Z,26.5255,-82.0032,2.33,18.08,2 
SCCF RECON,ioos:station:SCCF:13:1,2009-03-07T15:00:00Z,26.5255,-82.0032,2.33,17.86,2 
SCCF RECON,ioos:station:SCCF:13:1,2009-03-07T16:00:00Z,26.5255,-82.0032,2.33,18.37,2 
SCCF RECON,ioos:station:SCCF:13:1,2009-03-07T17:00:00Z,26.5255,-82.0032,2.33,18.4,2 
SCCF RECON,ioos:station:SCCF:13:1,2009-03-07T18:00:00Z,26.5255,-82.0032,2.33,18.54,2 
SCCF RECON,ioos:station:SCCF:13:1,2009-03-07T19:00:00Z,26.5255,-82.0032,2.33,18.74,2 
SCCF RECON,ioos:station:SCCF:13:1,2009-03-07T20:00:00Z,26.5255,-82.0032,2.33,18.99,2 
SCCF RECON,ioos:station:SCCF:13:1,2009-03-07T21:00:00Z,26.5255,-82.0032,2.33,18.97,2 
SCCF RECON,ioos:station:SCCF:13:1,2009-03-07T22:00:00Z,26.5255,-82.0032,2.33,19.12,2 
SCCF RECON,ioos:station:SCCF:13:1,2009-03-07T23:00:00Z,26.5255,-82.0032,2.33,19.3,2 
SCCF RECON,ioos:station:SCCF:13:1,2009-03-08T00:00:00Z,26.5255,-82.0032,2.33,19.56,2 
SCCF RECON,ioos:station:SCCF:13:1,2009-03-08T01:00:00Z,26.5255,-82.0032,2.33,19.16,2 
SCCF RECON,ioos:station:SCCF:13:1,2009-03-08T02:00:00Z,26.5255,-82.0032,2.33,18.75,2 
SCCF RECON,ioos:station:SCCF:13:1,2009-03-08T03:00:00Z,26.5255,-82.0032,2.33,18.97,2 
SCCF RECON,ioos:station:SCCF:13:1,2009-03-08T04:00:00Z,26.5255,-82.0032,2.33,19.15,2 
SCCF RECON,ioos:station:SCCF:13:1,2009-03-08T05:00:00Z,26.5255,-82.0032,2.33,19.1,2 
SCCF RECON,ioos:station:SCCF:13:1,2009-03-08T06:00:00Z,26.5255,-82.0032,2.33,19.0,2 
SCCF RECON,ioos:station:SCCF:13:1,2009-03-08T07:00:00Z,26.5255,-82.0032,2.33,19.04,2 
SCCF RECON,ioos:station:SCCF:13:1,2009-03-08T08:00:00Z,26.5255,-82.0032,2.33,18.87,2 
SCCF RECON,ioos:station:SCCF:13:1,2009-03-08T09:00:00Z,26.5255,-82.0032,2.33,18.84,2 
SCCF RECON,ioos:station:SCCF:13:1,2009-03-08T10:00:00Z,26.5255,-82.0032,2.33,18.92,2 
SCCF RECON,ioos:station:SCCF:13:1,2009-03-08T11:00:00Z,26.5255,-82.0032,2.33,19.13,2 
SCCF RECON,ioos:station:SCCF:13:1,2009-03-08T12:00:00Z,26.5255,-82.0032,2.33,19.23,2 
SCCF RECON,ioos:station:SCCF:13:1,2009-03-08T13:00:00Z,26.5255,-82.0032,2.33,19.23,2 
SCCF RECON,ioos:station:SCCF:13:1,2009-03-08T14:00:00Z,26.5255,-82.0032,2.33,19.25,2 
SCCF RECON,ioos:station:SCCF:13:1,2009-03-08T15:00:00Z,26.5255,-82.0032,2.33,19.24,2 
SCCF RECON,ioos:station:SCCF:13:1,2009-03-08T16:00:00Z,26.5255,-82.0032,2.33,19.32,2 
SCCF RECON,ioos:station:SCCF:13:1,2009-03-08T17:00:00Z,26.5255,-82.0032,2.33,19.48,2 
SCCF RECON,ioos:station:SCCF:13:1,2009-03-08T18:00:00Z,26.5255,-82.0032,2.33,19.56,2 
SCCF RECON,ioos:station:SCCF:13:1,2009-03-08T19:00:00Z,26.5255,-82.0032,2.33,19.7,2 
SCCF RECON,ioos:station:SCCF:13:1,2009-03-08T20:00:00Z,26.5255,-82.0032,2.33,19.9,2 
SCCF RECON,ioos:station:SCCF:13:1,2009-03-08T21:00:00Z,26.5255,-82.0032,2.33,20.16,2 
SCCF RECON,ioos:station:SCCF:13:1,2009-03-08T22:00:00Z,26.5255,-82.0032,2.33,20.45,2 
SCCF RECON,ioos:station:SCCF:13:1,2009-03-08T23:00:00Z,26.5255,-82.0032,2.33,20.78,2 
SCCF RECON,ioos:station:SCCF:13:1,2009-03-09T00:00:00Z,26.5255,-82.0032,2.33,20.93,2 
SCCF RECON,ioos:station:SCCF:13:1,2009-03-09T01:00:00Z,26.5255,-82.0032,2.33,20.57,2 
SCCF RECON,ioos:station:SCCF:13:1,2009-03-09T02:00:00Z,26.5255,-82.0032,2.33,20.52,2 
SCCF RECON,ioos:station:SCCF:13:1,2009-03-09T03:00:00Z,26.5255,-82.0032,2.33,20.37,2 
SCCF RECON,ioos:station:SCCF:13:1,2009-03-09T04:00:00Z,26.5255,-82.0032,2.33,20.02,2 
SCCF RECON,ioos:station:SCCF:13:1,2009-03-09T05:00:00Z,26.5255,-82.0032,2.33,20.07,2 
SCCF RECON,ioos:station:SCCF:13:1,2009-03-09T06:00:00Z,26.5255,-82.0032,2.33,19.99,2 
SCCF RECON,ioos:station:SCCF:13:1,2009-03-09T07:00:00Z,26.5255,-82.0032,2.33,19.9,2 
SCCF RECON,ioos:station:SCCF:13:1,2009-03-09T08:00:00Z,26.5255,-82.0032,2.33,19.92,2 
SCCF RECON,ioos:station:SCCF:13:1,2009-03-09T09:00:00Z,26.5255,-82.0032,2.33,19.96,2 
SCCF RECON,ioos:station:SCCF:13:1,2009-03-09T10:00:00Z,26.5255,-82.0032,2.33,19.94,2 
SCCF RECON,ioos:station:SCCF:13:1,2009-03-09T11:00:00Z,26.5255,-82.0032,2.33,19.89,2 
SCCF RECON,ioos:station:SCCF:13:1,2009-03-09T12:00:00Z,26.5255,-82.0032,2.33,20.01,2 
SCCF RECON,ioos:station:SCCF:13:1,2009-03-09T13:00:00Z,26.5255,-82.0032,2.33,20.11,2 
SCCF RECON,ioos:station:SCCF:13:1,2009-03-09T14:00:00Z,26.5255,-82.0032,2.33,20.16,2 
SCCF RECON,ioos:station:SCCF:13:1,2009-03-09T15:00:00Z,26.5255,-82.0032,2.33,20.21,2 
SCCF RECON,ioos:station:SCCF:13:1,2009-03-09T16:00:00Z,26.5255,-82.0032,2.33,20.22,2 
SCCF RECON,ioos:station:SCCF:13:1,2009-03-09T17:00:00Z,26.5255,-82.0032,2.33,20.48,2 
SCCF RECON,ioos:station:SCCF:13:1,2009-03-09T18:00:00Z,26.5255,-82.0032,2.33,20.52,2 
SCCF RECON,ioos:station:SCCF:13:1,2009-03-09T19:00:00Z,26.5255,-82.0032,2.33,20.66,2 
SCCF RECON,ioos:station:SCCF:13:1,2009-03-09T20:00:00Z,26.5255,-82.0032,2.33,20.86,2 
SCCF RECON,ioos:station:SCCF:13:1,2009-03-09T21:00:00Z,26.5255,-82.0032,2.33,20.99,2 
SCCF RECON,ioos:station:SCCF:13:1,2009-03-09T22:00:00Z,26.5255,-82.0032,2.33,21.31,2 
SCCF RECON,ioos:station:SCCF:13:1,2009-03-09T23:00:00Z,26.5255,-82.0032,2.33,21.55,2 
SCCF RECON,ioos:station:SCCF:13:1,2009-03-10T00:00:00Z,26.5255,-82.0032,2.33,21.56,2 
SCCF RECON,ioos:station:SCCF:13:1,2009-03-10T01:00:00Z,26.5255,-82.0032,2.33,21.38,2 
SCCF RECON,ioos:station:SCCF:13:1,2009-03-10T02:00:00Z,26.5255,-82.0032,2.33,21.52,2 
SCCF RECON,ioos:station:SCCF:13:1,2009-03-10T03:00:00Z,26.5255,-82.0032,2.33,21.31,2 
SCCF RECON,ioos:station:SCCF:13:1,2009-03-10T04:00:00Z,26.5255,-82.0032,2.33,21.27,2 
SCCF RECON,ioos:station:SCCF:13:1,2009-03-10T05:00:00Z,26.5255,-82.0032,2.33,21.13,2 
SCCF RECON,ioos:station:SCCF:13:1,2009-03-10T06:00:00Z,26.5255,-82.0032,2.33,20.86,2 
SCCF RECON,ioos:station:SCCF:13:1,2009-03-10T07:00:00Z,26.5255,-82.0032,2.33,20.8,2 
SCCF RECON,ioos:station:SCCF:13:1,2009-03-10T08:00:00Z,26.5255,-82.0032,2.33,20.78,2 
SCCF RECON,ioos:station:SCCF:13:1,2009-03-10T09:00:00Z,26.5255,-82.0032,2.33,20.84,2 
SCCF RECON,ioos:station:SCCF:13:1,2009-03-10T10:00:00Z,26.5255,-82.0032,2.33,20.76,2 
SCCF RECON,ioos:station:SCCF:13:1,2009-03-10T11:00:00Z,26.5255,-82.0032,2.33,20.82,2 
SCCF RECON,ioos:station:SCCF:13:1,2009-03-10T12:00:00Z,26.5255,-82.0032,2.33,20.75,2 
SCCF RECON,ioos:station:SCCF:13:1,2009-03-10T13:00:00Z,26.5255,-82.0032,2.33,20.89,2 
SCCF RECON,ioos:station:SCCF:13:1,2009-03-10T14:00:00Z,26.5255,-82.0032,2.33,21.02,2 
SCCF RECON,ioos:station:SCCF:13:1,2009-03-10T15:00:00Z,26.5255,-82.0032,2.33,21.07,2 
SCCF RECON,ioos:station:SCCF:13:1,2009-03-10T16:00:00Z,26.5255,-82.0032,2.33,21.02,2 
SCCF RECON,ioos:station:SCCF:13:1,2009-03-10T17:00:00Z,26.5255,-82.0032,2.33,21.39,2 
SCCF RECON,ioos:station:SCCF:13:1,2009-03-10T18:00:00Z,26.5255,-82.0032,2.33,21.47,2 
SCCF RECON,ioos:station:SCCF:13:1,2009-03-10T19:00:00Z,26.5255,-82.0032,2.33,21.68,2 
SCCF RECON,ioos:station:SCCF:13:1,2009-03-10T20:00:00Z,26.5255,-82.0032,2.33,21.88,2 
SCCF RECON,ioos:station:SCCF:13:1,2009-03-10T21:00:00Z,26.5255,-82.0032,2.33,22.03,2 
SCCF RECON,ioos:station:SCCF:13:1,2009-03-10T22:00:00Z,26.5255,-82.0032,2.33,22.12,2 
SCCF RECON,ioos:station:SCCF:13:1,2009-03-10T23:00:00Z,26.5255,-82.0032,2.33,22.36,2 
SCCF RECON,ioos:station:SCCF:13:1,2009-03-11T00:00:00Z,26.5255,-82.0032,2.33,22.4,2 
SCCF RECON,ioos:station:SCCF:13:1,2009-03-11T01:00:00Z,26.5255,-82.0032,2.33,22.17,2 
SCCF RECON,ioos:station:SCCF:13:1,2009-03-11T02:00:00Z,26.5255,-82.0032,2.33,22.15,2 
SCCF RECON,ioos:station:SCCF:13:1,2009-03-11T03:00:00Z,26.5255,-82.0032,2.33,22.13,2 
SCCF RECON,ioos:station:SCCF:13:1,2009-03-11T04:00:00Z,26.5255,-82.0032,2.33,22.13,2 
SCCF RECON,ioos:station:SCCF:13:1,2009-03-11T05:00:00Z,26.5255,-82.0032,2.33,22.27,2 
SCCF RECON,ioos:station:SCCF:13:1,2009-03-11T06:00:00Z,26.5255,-82.0032,2.33,21.82,2 
SCCF RECON,ioos:station:SCCF:13:1,2009-03-11T07:00:00Z,26.5255,-82.0032,2.33,21.75,2 
SCCF RECON,ioos:station:SCCF:13:1,2009-03-11T08:00:00Z,26.5255,-82.0032,2.33,21.73,2 
SCCF RECON,ioos:station:SCCF:13:1,2009-03-11T09:00:00Z,26.5255,-82.0032,2.33,21.72,2 
SCCF RECON,ioos:station:SCCF:13:1,2009-03-11T10:00:00Z,26.5255,-82.0032,2.33,21.71,2 
SCCF RECON,ioos:station:SCCF:13:1,2009-03-11T11:00:00Z,26.5255,-82.0032,2.33,21.52,2 
SCCF RECON,ioos:station:SCCF:13:1,2009-03-11T12:00:00Z,26.5255,-82.0032,2.33,21.54,2 
SCCF RECON,ioos:station:SCCF:13:1,2009-03-11T13:00:00Z,26.5255,-82.0032,2.33,21.56,2 
SCCF RECON,ioos:station:SCCF:13:1,2009-03-11T14:00:00Z,26.5255,-82.0032,2.33,21.78,2 
SCCF RECON,ioos:station:SCCF:13:1,2009-03-11T15:00:00Z,26.5255,-82.0032,2.33,21.93,2 
SCCF RECON,ioos:station:SCCF:13:1,2009-03-11T16:00:00Z,26.5255,-82.0032,2.33,21.91,2 
SCCF RECON,ioos:station:SCCF:13:1,2009-03-11T17:00:00Z,26.5255,-82.0032,2.33,22.09,2 
SCCF RECON,ioos:station:SCCF:13:1,2009-03-11T18:00:00Z,26.5255,-82.0032,2.33,22.2,2 
SCCF RECON,ioos:station:SCCF:13:1,2009-03-11T19:00:00Z,26.5255,-82.0032,2.33,22.3,2 
SCCF RECON,ioos:station:SCCF:13:1,2009-03-11T20:00:00Z,26.5255,-82.0032,2.33,22.44,2 
SCCF RECON,ioos:station:SCCF:13:1,2009-03-11T21:00:00Z,26.5255,-82.0032,2.33,22.41,2 
SCCF RECON,ioos:station:SCCF:13:1,2009-03-11T22:00:00Z,26.5255,-82.0032,2.33,22.7,2 
SCCF RECON,ioos:station:SCCF:13:1,2009-03-11T23:00:00Z,26.5255,-82.0032,2.33,22.9,2 
SCCF RECON,ioos:station:SCCF:13:1,2009-03-12T00:00:00Z,26.5255,-82.0032,2.33,22.92,2 
SCCF RECON,ioos:station:SCCF:13:1,2009-03-12T01:00:00Z,26.5255,-82.0032,2.33,22.82,2 
SCCF RECON,ioos:station:SCCF:13:1,2009-03-12T02:00:00Z,26.5255,-82.0032,2.33,22.88,2 
SCCF RECON,ioos:station:SCCF:13:1,2009-03-12T03:00:00Z,26.5255,-82.0032,2.33,22.88,2 
SCCF RECON,ioos:station:SCCF:13:1,2009-03-12T04:00:00Z,26.5255,-82.0032,2.33,22.77,2 
SCCF RECON,ioos:station:SCCF:13:1,2009-03-12T05:00:00Z,26.5255,-82.0032,2.33,22.65,2 
SCCF RECON,ioos:station:SCCF:13:1,2009-03-12T06:00:00Z,26.5255,-82.0032,2.33,22.65,2 
SCCF RECON,ioos:station:SCCF:13:1,2009-03-12T07:00:00Z,26.5255,-82.0032,2.33,22.59,2 
SCCF RECON,ioos:station:SCCF:13:1,2009-03-12T08:00:00Z,26.5255,-82.0032,2.33,22.31,2 
SCCF RECON,ioos:station:SCCF:13:1,2009-03-12T09:00:00Z,26.5255,-82.0032,2.33,22.25,2 
SCCF RECON,ioos:station:SCCF:13:1,2009-03-12T10:00:00Z,26.5255,-82.0032,2.33,22.23,2 
SCCF RECON,ioos:station:SCCF:13:1,2009-03-12T11:00:00Z,26.5255,-82.0032,2.33,22.18,2 
SCCF RECON,ioos:station:SCCF:13:1,2009-03-12T12:00:00Z,26.5255,-82.0032,2.33,22.07,2 
SCCF RECON,ioos:station:SCCF:13:1,2009-03-12T13:00:00Z,26.5255,-82.0032,2.33,22.19,2 